DW2468 Weather Reports


time (UTC)temp
F
wind
direction
speed
knots
gust
knots
rain 1hr
in
rain 24hr
in
rain mn
in
humidity
%
barometer
mb
20260506184508 55 217 3.5 6.1 0.00 0.00 0.00 90 1017.0
20260506183008 55 237 5.2 9.6 0.00 0.00 0.00 90 1017.2
20260506181507 55 144 5.2 8.7 0.00 0.00 0.00 90 1017.0
20260506180006 54 234 4.3 7.8 0.00 0.00 0.00 91 1017.0
20260506174505 54 225 7.0 11.3 0.00 0.00 0.00 91 1017.1
20260506173004 54 227 3.5 7.8 0.00 0.00 0.00 91 1016.9
20260506171503 54 247 1.7 7.8 0.00 0.00 0.00 91 1016.9
20260506170004 54 163 2.6 6.1 0.00 0.00 0.00 90 1016.8
20260506164503 54 235 3.5 10.4 0.00 0.00 0.00 91 1016.8
20260506163003 53 250 3.5 7.0 0.00 0.00 0.00 90 1016.8
20260506161605 54 190 2.6 5.2 0.00 0.00 0.00 90 1016.9
20260506160103 53 150 3.5 9.6 0.00 0.00 0.00 91 1016.9
20260506154602 53 184 7.0 10.4 0.00 0.00 0.00 90 1016.9
20260506153055 53 184 5.2 8.7 0.00 0.00 0.00 90 1016.7
20260506151553 53 213 6.1 10.4 0.00 0.00 0.00 90 1016.5
20260506150051 53 215 4.3 7.0 0.00 0.00 0.00 90 1016.2
20260506144548 53 222 2.6 8.7 0.00 0.00 0.00 90 1016.2
20260506143046 53 217 3.5 8.7 0.00 0.00 0.00 90 1015.9
20260506141553 53 199 2.6 10.4 0.00 0.00 0.00 90 1016.0
20260506140054 53 211 2.6 8.7 0.00 0.00 0.00 90 1016.0
20260506134543 53 186 4.3 7.8 0.00 0.00 0.00 90 1015.8
20260506133042 53 188 2.6 6.1 0.00 0.00 0.00 90 1015.5
20260506131540 53 161 2.6 7.0 0.00 0.00 0.00 90 1015.2
20260506130039 53 206 3.5 7.0 0.00 0.00 0.00 90 1015.2
20260506124538 53 192 3.5 6.1 0.00 0.00 0.00 91 1015.3
20260506123036 53 199 2.6 7.0 0.00 0.00 0.00 91 1015.4
20260506121533 53 225 2.6 7.0 0.00 0.00 0.00 91 1015.3
20260506120034 52 214 2.6 5.2 0.00 0.00 0.00 91 1014.9
20260506114529 52 165 3.5 7.0 0.00 0.00 0.00 91 1014.7
20260506113028 52 208 3.5 8.7 0.00 0.00 0.00 91 1014.7
20260506111528 52 199 2.6 5.2 0.00 0.00 0.00 91 1014.7
20260506110023 52 229 3.5 7.8 0.00 0.00 0.00 91 1014.6
20260506104520 52 211 2.6 7.0 0.00 0.00 0.00 90 1014.4
20260506103021 53 213 3.5 8.7 0.00 0.00 0.00 90 1014.1
20260506101517 53 213 3.5 5.2 0.00 0.00 0.00 90 1014.1
20260506100013 53 216 3.5 7.0 0.00 0.00 0.00 90 1014.0
20260506094510 53 231 4.3 7.8 0.00 0.00 0.00 90 1013.7
20260506093013 53 206 3.5 6.1 0.00 0.00 0.00 90 1013.6
20260506091505 53 209 2.6 5.2 0.00 0.00 0.00 89 1013.7
20260506090004 53 225 2.6 5.2 0.00 0.00 0.00 90 1013.4
20260506084506 53 179 2.6 4.3 0.00 0.00 0.00 89 1013.4
20260506083001 53 200 2.6 6.1 0.00 0.00 0.00 89 1013.4
20260506081659 54 202 2.6 6.1 0.00 0.00 0.00 88 1013.2
20260506080110 54 211 3.5 7.0 0.00 0.00 0.00 88 1013.1
20260506073059 55 227 2.6 5.2 0.00 0.00 0.00 88 1012.9
20260506071547 55 177 2.6 6.1 0.00 0.00 0.00 87 1012.9
20260506061555 56 184 2.6 6.1 0.00 0.00 0.00 86 1012.6
20260506044537 57 194 2.6 5.2 0.00 0.00 0.00 85 1012.1
20260506043037 57 223 2.6 6.1 0.00 0.00 0.00 84 1012.0
20260506041540 57 203 2.6 6.1 0.00 0.00 0.00 84 1011.7
20260506040037 57 217 2.6 6.1 0.00 0.00 0.00 84 1011.6
20260506034536 57 217 3.5 7.0 0.00 0.00 0.00 84 1011.3
20260506033035 58 210 2.6 7.8 0.00 0.00 0.00 84 1011.3
20260506031535 58 198 1.7 7.8 0.00 0.00 0.00 83 1011.3
20260506030035 59 209 3.5 6.1 0.00 0.00 0.00 82 1011.2
20260506024533 59 205 2.6 6.1 0.00 0.00 0.00 81 1011.2
20260506023036 60 180 2.6 12.2 0.00 0.00 0.00 80 1011.2
20260506021533 61 207 3.5 10.4 0.00 0.00 0.00 79 1011.1
20260506020105 62 236 6.1 12.2 0.00 0.00 0.00 78 1011.2
20260506014531 63 192 4.3 10.4 0.00 0.00 0.00 76 1011.2
20260506013031 64 246 5.2 10.4 0.00 0.00 0.00 75 1011.2
20260506011533 64 223 5.2 12.2 0.00 0.00 0.00 76 1011.2
20260506010031 64 198 5.2 10.4 0.00 0.00 0.00 76 1011.3
20260506004528 64 212 6.1 11.3 0.00 0.00 0.00 76 1011.3
20260506003028 64 176 7.0 12.2 0.00 0.00 0.00 77 1011.3
20260506001528 64 205 7.8 13.0 0.00 0.00 0.00 76 1011.3
20260506000042 65 234 6.1 11.3 0.00 0.00 0.00 78 1011.5
20260505234525 65 183 6.1 10.4 0.00 0.00 0.00 77 1011.6
20260505233024 64 208 5.2 10.4 0.00 0.00 0.00 79 1011.7
20260505231529 64 219 7.8 12.2 0.00 0.00 0.00 78 1011.8
20260505230039 64 202 7.0 13.9 0.00 0.00 0.00 78 1011.9
20260505224523 64 218 7.0 13.0 0.00 0.00 0.00 79 1012.0
20260505223022 64 224 7.8 13.0 0.00 0.00 0.00 79 1012.2
20260505221521 64 220 5.2 13.9 0.00 0.00 0.00 79 1012.3
20260505220021 64 173 5.2 13.9 0.00 0.00 0.00 79 1012.3
20260505214520 64 231 7.0 15.6 0.00 0.00 0.00 79 1012.4
20260505213021 64 146 5.2 15.6 0.00 0.00 0.00 80 1012.4
20260505211527 64 202 7.0 15.6 0.00 0.00 0.00 78 1012.5
20260505210016 64 225 5.2 11.3 0.00 0.00 0.00 80 1012.8
20260505204514 63 259 7.0 15.6 0.00 0.00 0.00 80 1012.8
20260505203015 63 215 7.0 15.6 0.00 0.00 0.00 81 1012.6
20260505201510 62 211 7.0 12.2 0.00 0.00 0.00 80 1012.7
20260505200009 62 219 10.4 15.6 0.00 0.00 0.00 81 1012.8
20260505194507 62 179 7.8 13.9 0.00 0.00 0.00 82 1012.9
20260505193006 62 194 7.8 16.5 0.00 0.00 0.00 82 1012.9
20260505191505 62 210 6.1 15.6 0.00 0.00 0.00 84 1012.9
20260505190004 61 173 7.8 13.9 0.00 0.00 0.00 83 1012.8